Time,TemperatureF,DewpointF,PressureIn,WindDirection,WindDirectionDegrees,WindSpeedMPH,WindSpeedGustMPH,Humidity,HourlyPrecipIn,Conditions,Clouds,dailyrainin,SoftwareType,DateUTC
2013-09-26 00:01:00,40.1,39.0,30.12,WNW,292,2.0,2.0,96,0.00,,,0.00,Rainwise IP-100,2013-09-26 04:01:00,
2013-09-26 00:02:00,40.3,39.0,30.12,WNW,292,2.0,2.0,96,0.00,,,0.00,Rainwise IP-100,2013-09-26 04:02:00,
2013-09-26 00:03:00,40.2,39.0,30.12,WNW,292,0.0,2.0,96,0.00,,,0.00,Rainwise IP-100,2013-09-26 04:03:00,
2013-09-26 00:08:00,39.9,39.0,30.12,WNW,292,0.0,2.0,96,0.00,,,0.00,Rainwise IP-100,2013-09-26 04:08:00,
2013-09-26 00:10:00,39.7,39.0,30.12,East,90,0.0,2.0,96,0.00,,,0.00,Rainwise IP-100,2013-09-26 04:10:00,
2013-09-26 00:16:00,39.8,39.0,30.12,East,90,0.0,2.0,96,0.00,,,0.00,Rainwise IP-100,2013-09-26 04:16:00,
2013-09-26 00:21:00,39.6,39.0,30.12,East,90,0.0,0.0,96,0.00,,,0.00,Rainwise IP-100,2013-09-26 04:21:00,
2013-09-26 00:26:00,39.7,39.0,30.12,NW,315,2.0,2.0,96,0.00,,,0.00,Rainwise IP-100,2013-09-26 04:26:00,
2013-09-26 00:31:00,39.6,39.0,30.12,NW,315,0.0,2.0,96,0.00,,,0.00,Rainwise IP-100,2013-09-26 04:31:00,
2013-09-26 00:36:00,39.8,39.0,30.12,NW,315,0.0,2.0,96,0.00,,,0.00,Rainwise IP-100,2013-09-26 04:36:00,
2013-09-26 00:41:00,39.8,39.0,30.12,NW,315,0.0,2.0,96,0.00,,,0.00,Rainwise IP-100,2013-09-26 04:41:00,
2013-09-26 00:46:00,39.7,39.0,30.12,NW,315,0.0,1.0,96,0.00,,,0.00,Rainwise IP-100,2013-09-26 04:46:00,
2013-09-26 00:51:00,39.4,38.0,30.12,NW,315,1.0,2.0,96,0.00,,,0.00,Rainwise IP-100,2013-09-26 04:51:00,
2013-09-26 00:56:00,39.3,38.0,30.12,NW,315,0.0,2.0,96,0.00,,,0.00,Rainwise IP-100,2013-09-26 04:56:00,
2013-09-26 01:01:00,39.1,38.0,30.12,NNW,337,2.0,2.0,96,0.00,,,0.00,Rainwise IP-100,2013-09-26 05:01:00,
2013-09-26 01:07:00,39.0,38.0,30.12,NNW,337,1.0,2.0,96,0.00,,,0.00,Rainwise IP-100,2013-09-26 05:07:00,
2013-09-26 01:12:00,39.2,38.0,30.12,ESE,112,1.0,2.0,96,0.00,,,0.00,Rainwise IP-100,2013-09-26 05:12:00,
2013-09-26 01:18:00,39.2,38.0,30.13,ESE,112,0.0,2.0,96,0.00,,,0.00,Rainwise IP-100,2013-09-26 05:18:00,
2013-09-26 01:24:00,39.4,38.0,30.13,ESE,112,0.0,2.0,96,0.00,,,0.00,Rainwise IP-100,2013-09-26 05:24:00,
2013-09-26 01:29:00,39.5,39.0,30.13,ESE,112,0.0,0.0,96,0.00,,,0.00,Rainwise IP-100,2013-09-26 05:29:00,
2013-09-26 01:34:00,39.6,39.0,30.13,ESE,112,0.0,1.0,96,0.00,,,0.00,Rainwise IP-100,2013-09-26 05:34:00,
2013-09-26 01:39:00,39.8,39.0,30.13,ESE,112,0.0,2.0,96,0.00,,,0.00,Rainwise IP-100,2013-09-26 05:39:00,
2013-09-26 01:44:00,39.9,39.0,30.13,ESE,112,0.0,1.0,96,0.00,,,0.00,Rainwise IP-100,2013-09-26 05:44:00,
2013-09-26 01:49:00,40.1,39.0,30.13,ESE,112,0.0,1.0,96,0.00,,,0.00,Rainwise IP-100,2013-09-26 05:49:00,
2013-09-26 01:54:00,40.5,40.0,30.13,ESE,112,2.0,2.0,96,0.00,,,0.00,Rainwise IP-100,2013-09-26 05:54:00,
2013-09-26 01:59:00,40.5,40.0,30.13,ESE,112,0.0,2.0,96,0.00,,,0.00,Rainwise IP-100,2013-09-26 05:59:00,
2013-09-26 02:05:00,40.5,40.0,30.13,ESE,112,0.0,1.0,96,0.00,,,0.00,Rainwise IP-100,2013-09-26 06:05:00,
2013-09-26 02:10:00,40.5,40.0,30.13,ESE,112,0.0,0.0,96,0.00,,,0.00,Rainwise IP-100,2013-09-26 06:10:00,
2013-09-26 02:16:00,40.4,39.0,30.13,ESE,112,0.0,0.0,96,0.00,,,0.00,Rainwise IP-100,2013-09-26 06:16:00,
2013-09-26 02:21:00,40.2,39.0,30.13,ESE,112,0.0,0.0,96,0.00,,,0.00,Rainwise IP-100,2013-09-26 06:21:00,
2013-09-26 02:26:00,39.9,39.0,30.13,ESE,112,0.0,0.0,96,0.00,,,0.00,Rainwise IP-100,2013-09-26 06:26:00,
2013-09-26 02:31:00,39.4,38.0,30.13,North,360,1.0,2.0,96,0.00,,,0.00,Rainwise IP-100,2013-09-26 06:31:00,
2013-09-26 02:36:00,39.2,38.0,30.13,North,360,2.0,2.0,96,0.00,,,0.00,Rainwise IP-100,2013-09-26 06:36:00,
2013-09-26 02:41:00,39.1,38.0,30.13,NW,315,0.0,2.0,96,0.00,,,0.00,Rainwise IP-100,2013-09-26 06:41:00,
2013-09-26 02:46:00,38.6,38.0,30.13,NW,315,0.0,2.0,96,0.00,,,0.00,Rainwise IP-100,2013-09-26 06:46:00,
2013-09-26 02:51:00,38.2,37.0,30.13,NW,315,0.0,0.0,96,0.00,,,0.00,Rainwise IP-100,2013-09-26 06:51:00,
2013-09-26 02:56:00,37.5,37.0,30.13,NW,315,1.0,1.0,95,0.00,,,0.00,Rainwise IP-100,2013-09-26 06:56:00,
2013-09-26 03:01:00,37.4,36.0,30.13,NW,315,0.0,2.0,95,0.00,,,0.00,Rainwise IP-100,2013-09-26 07:01:00,
2013-09-26 03:06:00,37.2,36.0,30.12,NW,315,0.0,2.0,95,0.00,,,0.00,Rainwise IP-100,2013-09-26 07:06:00,
2013-09-26 03:11:00,36.7,36.0,30.12,NW,315,0.0,2.0,95,0.00,,,0.00,Rainwise IP-100,2013-09-26 07:11:00,
2013-09-26 03:17:00,36.5,36.0,30.12,NW,315,2.0,2.0,95,0.00,,,0.00,Rainwise IP-100,2013-09-26 07:17:00,
2013-09-26 03:22:00,36.4,35.0,30.12,NW,315,0.0,2.0,95,0.00,,,0.00,Rainwise IP-100,2013-09-26 07:22:00,
2013-09-26 03:27:00,35.9,35.0,30.12,NW,315,0.0,2.0,95,0.00,,,0.00,Rainwise IP-100,2013-09-26 07:27:00,
2013-09-26 03:32:00,35.9,35.0,30.12,NW,315,2.0,2.0,95,0.00,,,0.00,Rainwise IP-100,2013-09-26 07:32:00,
2013-09-26 03:37:00,35.5,35.0,30.13,NW,315,1.0,2.0,95,0.00,,,0.00,Rainwise IP-100,2013-09-26 07:37:00,
2013-09-26 03:43:00,35.1,33.0,30.12,NW,315,0.0,2.0,95,0.00,,,0.00,Rainwise IP-100,2013-09-26 07:43:00,
2013-09-26 03:48:00,34.9,33.0,30.12,NW,315,0.0,1.0,95,0.00,,,0.00,Rainwise IP-100,2013-09-26 07:48:00,
2013-09-26 03:53:00,34.9,33.0,30.12,North,360,1.0,2.0,95,0.00,,,0.00,Rainwise IP-100,2013-09-26 07:53:00,
2013-09-26 03:58:00,35.2,33.0,30.12,North,360,0.0,2.0,95,0.00,,,0.00,Rainwise IP-100,2013-09-26 07:58:00,
2013-09-26 04:03:00,34.9,33.0,30.13,North,360,0.0,0.0,95,0.00,,,0.00,Rainwise IP-100,2013-09-26 08:03:00,
2013-09-26 04:08:00,34.7,33.0,30.13,North,360,0.0,0.0,95,0.00,,,0.00,Rainwise IP-100,2013-09-26 08:08:00,
2013-09-26 04:14:00,34.4,33.0,30.13,North,360,0.0,0.0,95,0.00,,,0.00,Rainwise IP-100,2013-09-26 08:14:00,
2013-09-26 04:21:00,34.1,33.0,30.12,North,360,0.0,0.0,95,0.00,,,0.00,Rainwise IP-100,2013-09-26 08:21:00,
2013-09-26 04:27:00,33.7,33.0,30.12,North,360,0.0,0.0,95,0.00,,,0.00,Rainwise IP-100,2013-09-26 08:27:00,
2013-09-26 04:32:00,33.3,32.0,30.12,North,360,2.0,2.0,95,0.00,,,0.00,Rainwise IP-100,2013-09-26 08:32:00,
2013-09-26 04:37:00,34.3,33.0,30.13,NW,315,0.0,2.0,95,0.00,,,0.00,Rainwise IP-100,2013-09-26 08:37:00,
2013-09-26 04:42:00,33.9,33.0,30.13,NW,315,0.0,2.0,95,0.00,,,0.00,Rainwise IP-100,2013-09-26 08:42:00,
2013-09-26 04:47:00,33.6,33.0,30.13,NW,315,0.0,1.0,95,0.00,,,0.00,Rainwise IP-100,2013-09-26 08:47:00,
2013-09-26 04:52:00,33.3,32.0,30.13,NW,315,0.0,0.0,95,0.00,,,0.00,Rainwise IP-100,2013-09-26 08:52:00,
2013-09-26 04:57:00,33.0,32.0,30.13,NW,315,0.0,0.0,95,0.00,,,0.00,Rainwise IP-100,2013-09-26 08:57:00,
2013-09-26 05:02:00,32.7,32.0,30.12,NW,315,0.0,0.0,95,0.00,,,0.00,Rainwise IP-100,2013-09-26 09:02:00,
2013-09-26 05:07:00,32.7,32.0,30.12,NW,315,1.0,2.0,95,0.00,,,0.00,Rainwise IP-100,2013-09-26 09:07:00,
2013-09-26 05:12:00,32.9,32.0,30.13,NW,315,1.0,2.0,95,0.00,,,0.00,Rainwise IP-100,2013-09-26 09:12:00,
2013-09-26 05:18:00,32.7,32.0,30.13,NW,315,0.0,2.0,95,0.00,,,0.00,Rainwise IP-100,2013-09-26 09:18:00,
2013-09-26 05:23:00,32.3,31.0,30.13,NW,315,0.0,0.0,95,0.00,,,0.00,Rainwise IP-100,2013-09-26 09:23:00,
2013-09-26 05:28:00,32.0,31.0,30.13,NW,315,1.0,2.0,95,0.00,,,0.00,Rainwise IP-100,2013-09-26 09:28:00,
2013-09-26 05:34:00,32.1,31.0,30.12,NW,315,0.0,1.0,95,0.00,,,0.00,Rainwise IP-100,2013-09-26 09:34:00,
2013-09-26 05:39:00,32.1,31.0,30.12,South,180,0.0,2.0,95,0.00,,,0.00,Rainwise IP-100,2013-09-26 09:39:00,
2013-09-26 05:44:00,32.2,31.0,30.13,South,180,0.0,1.0,95,0.00,,,0.00,Rainwise IP-100,2013-09-26 09:44:00,
2013-09-26 05:49:00,32.2,31.0,30.13,South,180,0.0,0.0,95,0.00,,,0.00,Rainwise IP-100,2013-09-26 09:49:00,
2013-09-26 05:54:00,32.1,31.0,30.13,South,180,0.0,0.0,95,0.00,,,0.00,Rainwise IP-100,2013-09-26 09:54:00,
2013-09-26 05:59:00,32.2,31.0,30.13,South,180,0.0,0.0,95,0.00,,,0.00,Rainwise IP-100,2013-09-26 09:59:00,
2013-09-26 06:04:00,32.4,31.0,30.13,South,180,0.0,0.0,95,0.00,,,0.00,Rainwise IP-100,2013-09-26 10:04:00,
2013-09-26 06:09:00,32.4,31.0,30.13,South,180,0.0,0.0,95,0.00,,,0.00,Rainwise IP-100,2013-09-26 10:09:00,
2013-09-26 06:14:00,32.4,31.0,30.13,South,180,0.0,0.0,95,0.00,,,0.00,Rainwise IP-100,2013-09-26 10:14:00,
2013-09-26 06:20:00,32.3,31.0,30.13,South,180,0.0,0.0,95,0.00,,,0.00,Rainwise IP-100,2013-09-26 10:20:00,
2013-09-26 06:25:00,32.1,31.0,30.14,South,180,0.0,0.0,95,0.00,,,0.00,Rainwise IP-100,2013-09-26 10:25:00,
2013-09-26 06:30:00,31.9,31.0,30.14,South,180,0.0,2.0,95,0.00,,,0.00,Rainwise IP-100,2013-09-26 10:30:00,
2013-09-26 06:35:00,31.7,31.0,30.14,South,180,0.0,0.0,95,0.00,,,0.00,Rainwise IP-100,2013-09-26 10:35:00,
2013-09-26 06:40:00,31.5,31.0,30.14,South,180,0.0,0.0,95,0.00,,,0.00,Rainwise IP-100,2013-09-26 10:40:00,
2013-09-26 06:45:00,31.5,31.0,30.14,South,180,0.0,0.0,95,0.00,,,0.00,Rainwise IP-100,2013-09-26 10:45:00,
2013-09-26 06:50:00,31.3,29.0,30.14,South,180,0.0,0.0,95,0.00,,,0.00,Rainwise IP-100,2013-09-26 10:50:00,
2013-09-26 06:55:00,30.9,29.0,30.14,South,180,0.0,0.0,94,0.00,,,0.00,Rainwise IP-100,2013-09-26 10:55:00,
2013-09-26 07:00:00,30.7,29.0,30.14,South,180,0.0,0.0,94,0.00,,,0.00,Rainwise IP-100,2013-09-26 11:00:00,
2013-09-26 07:05:00,30.9,29.0,30.15,South,180,0.0,0.0,94,0.00,,,0.00,Rainwise IP-100,2013-09-26 11:05:00,
2013-09-26 07:10:00,31.1,29.0,30.15,South,180,0.0,0.0,95,0.00,,,0.00,Rainwise IP-100,2013-09-26 11:10:00,
2013-09-26 07:15:00,31.2,29.0,30.15,South,180,0.0,0.0,95,0.00,,,0.00,Rainwise IP-100,2013-09-26 11:15:00,
2013-09-26 07:21:00,31.2,29.0,30.15,South,180,0.0,0.0,95,0.00,,,0.00,Rainwise IP-100,2013-09-26 11:21:00,
2013-09-26 07:26:00,31.4,29.0,30.15,South,180,0.0,0.0,95,0.00,,,0.00,Rainwise IP-100,2013-09-26 11:26:00,
2013-09-26 07:31:00,31.5,31.0,30.15,South,180,0.0,0.0,95,0.00,,,0.00,Rainwise IP-100,2013-09-26 11:31:00,
2013-09-26 07:36:00,31.7,31.0,30.15,South,180,0.0,0.0,95,0.00,,,0.00,Rainwise IP-100,2013-09-26 11:36:00,
2013-09-26 07:41:00,31.9,31.0,30.15,South,180,0.0,0.0,95,0.00,,,0.00,Rainwise IP-100,2013-09-26 11:41:00,
2013-09-26 07:46:00,32.5,32.0,30.16,South,180,0.0,0.0,95,0.00,,,0.00,Rainwise IP-100,2013-09-26 11:46:00,
2013-09-26 07:51:00,33.1,32.0,30.16,South,180,0.0,0.0,95,0.00,,,0.00,Rainwise IP-100,2013-09-26 11:51:00,
2013-09-26 07:56:00,33.7,33.0,30.16,South,180,0.0,0.0,95,0.00,,,0.00,Rainwise IP-100,2013-09-26 11:56:00,
2013-09-26 08:01:00,34.5,33.0,30.16,South,180,0.0,0.0,95,0.00,,,0.00,Rainwise IP-100,2013-09-26 12:01:00,
2013-09-26 08:06:00,35.1,33.0,30.16,ESE,112,2.0,2.0,95,0.00,,,0.00,Rainwise IP-100,2013-09-26 12:06:00,
2013-09-26 08:11:00,35.8,35.0,30.17,ESE,112,1.0,2.0,95,0.00,,,0.00,Rainwise IP-100,2013-09-26 12:11:00,
2013-09-26 08:16:00,36.3,35.0,30.17,ESE,112,0.0,2.0,95,0.00,,,0.00,Rainwise IP-100,2013-09-26 12:16:00,
2013-09-26 08:22:00,37.5,37.0,30.17,ESE,112,1.0,1.0,95,0.00,,,0.00,Rainwise IP-100,2013-09-26 12:22:00,
2013-09-26 08:27:00,38.5,38.0,30.17,ESE,112,0.0,2.0,96,0.00,,,0.00,Rainwise IP-100,2013-09-26 12:27:00,
2013-09-26 08:32:00,39.5,39.0,30.18,ESE,112,0.0,2.0,96,0.00,,,0.00,Rainwise IP-100,2013-09-26 12:32:00,
2013-09-26 08:38:00,40.0,39.0,30.19,ESE,112,0.0,3.0,96,0.00,,,0.00,Rainwise IP-100,2013-09-26 12:38:00,
2013-09-26 08:43:00,40.9,40.0,30.19,ESE,112,2.0,2.0,96,0.00,,,0.00,Rainwise IP-100,2013-09-26 12:43:00,
2013-09-26 08:48:00,41.9,41.0,30.19,ESE,112,2.0,2.0,96,0.00,,,0.00,Rainwise IP-100,2013-09-26 12:48:00,
2013-09-26 08:53:00,42.7,42.0,30.19,SE,135,0.0,2.0,96,0.00,,,0.00,Rainwise IP-100,2013-09-26 12:53:00,
2013-09-26 08:58:00,43.4,42.0,30.20,SE,135,1.0,2.0,96,0.00,,,0.00,Rainwise IP-100,2013-09-26 12:58:00,
2013-09-26 09:03:00,43.7,43.0,30.20,SE,135,2.0,2.0,96,0.00,,,0.00,Rainwise IP-100,2013-09-26 13:03:00,
2013-09-26 09:08:00,43.5,43.0,30.20,SE,135,0.0,2.0,96,0.00,,,0.00,Rainwise IP-100,2013-09-26 13:08:00,
2013-09-26 09:13:00,44.2,43.0,30.21,ESE,112,0.0,2.0,96,0.00,,,0.00,Rainwise IP-100,2013-09-26 13:13:00,
2013-09-26 09:18:00,45.3,44.0,30.21,SE,135,0.0,2.0,97,0.00,,,0.00,Rainwise IP-100,2013-09-26 13:18:00,
2013-09-26 09:24:00,46.6,46.0,30.21,North,360,1.0,2.0,97,0.00,,,0.00,Rainwise IP-100,2013-09-26 13:24:00,
2013-09-26 09:29:00,47.8,47.0,30.22,ESE,112,1.0,2.0,97,0.00,,,0.00,Rainwise IP-100,2013-09-26 13:29:00,
2013-09-26 09:34:00,48.2,46.0,30.21,SE,135,0.0,2.0,92,0.00,,,0.00,Rainwise IP-100,2013-09-26 13:34:00,
2013-09-26 09:39:00,48.8,47.0,30.22,SE,135,0.0,2.0,94,0.00,,,0.00,Rainwise IP-100,2013-09-26 13:39:00,
2013-09-26 09:44:00,49.3,47.0,30.22,SE,135,0.0,2.0,91,0.00,,,0.00,Rainwise IP-100,2013-09-26 13:44:00,
2013-09-26 09:49:00,50.5,47.0,30.23,NNE,22,0.0,2.0,88,0.00,,,0.00,Rainwise IP-100,2013-09-26 13:49:00,
2013-09-26 09:54:00,51.7,47.0,30.23,NW,315,1.0,4.0,82,0.00,,,0.00,Rainwise IP-100,2013-09-26 13:54:00,
2013-09-26 09:59:00,52.6,47.0,30.23,North,360,1.0,2.0,83,0.00,,,0.00,Rainwise IP-100,2013-09-26 13:59:00,
2013-09-26 10:04:00,53.3,46.0,30.23,ENE,67,4.0,5.0,78,0.00,,,0.00,Rainwise IP-100,2013-09-26 14:04:00,
2013-09-26 10:10:00,53.2,47.0,30.23,WSW,247,2.0,3.0,81,0.00,,,0.00,Rainwise IP-100,2013-09-26 14:10:00,
2013-09-26 10:15:00,53.5,47.0,30.23,NE,45,2.0,4.0,77,0.00,,,0.00,Rainwise IP-100,2013-09-26 14:15:00,
2013-09-26 10:20:00,54.4,46.0,30.24,NE,45,0.0,3.0,73,0.00,,,0.00,Rainwise IP-100,2013-09-26 14:20:00,
2013-09-26 10:26:00,55.1,47.0,30.24,NNW,337,0.0,4.0,72,0.00,,,0.00,Rainwise IP-100,2013-09-26 14:26:00,
2013-09-26 10:31:00,55.4,46.0,30.24,East,90,2.0,4.0,71,0.00,,,0.00,Rainwise IP-100,2013-09-26 14:31:00,
2013-09-26 10:37:00,55.5,47.0,30.24,East,90,2.0,4.0,71,0.00,,,0.00,Rainwise IP-100,2013-09-26 14:37:00,
2013-09-26 10:42:00,55.9,46.0,30.24,SE,135,2.0,6.0,69,0.00,,,0.00,Rainwise IP-100,2013-09-26 14:42:00,
2013-09-26 10:47:00,55.8,45.0,30.25,ENE,67,4.0,7.0,67,0.00,,,0.00,Rainwise IP-100,2013-09-26 14:47:00,
2013-09-26 10:52:00,55.9,46.0,30.25,SE,135,1.0,9.0,68,0.00,,,0.00,Rainwise IP-100,2013-09-26 14:52:00,
2013-09-26 10:57:00,56.4,45.0,30.25,NW,315,2.0,6.0,65,0.00,,,0.00,Rainwise IP-100,2013-09-26 14:57:00,
2013-09-26 11:02:00,56.1,45.0,30.25,NNE,22,2.0,12.0,66,0.00,,,0.00,Rainwise IP-100,2013-09-26 15:02:00,
2013-09-26 11:07:00,56.6,45.0,30.25,North,360,2.0,9.0,65,0.00,,,0.00,Rainwise IP-100,2013-09-26 15:07:00,
2013-09-26 11:12:00,56.9,46.0,30.25,North,360,7.0,7.0,65,0.00,,,0.00,Rainwise IP-100,2013-09-26 15:12:00,
2013-09-26 11:17:00,57.2,46.0,30.25,SSW,202,2.0,9.0,67,0.00,,,0.00,Rainwise IP-100,2013-09-26 15:17:00,
2013-09-26 11:22:00,56.9,46.0,30.25,North,360,6.0,9.0,65,0.00,,,0.00,Rainwise IP-100,2013-09-26 15:22:00,
2013-09-26 11:28:00,57.1,45.0,30.25,NW,315,2.0,9.0,63,0.00,,,0.00,Rainwise IP-100,2013-09-26 15:28:00,
2013-09-26 11:33:00,57.1,45.0,30.25,NNW,337,4.0,7.0,63,0.00,,,0.00,Rainwise IP-100,2013-09-26 15:33:00,
2013-09-26 11:38:00,57.2,45.0,30.25,ENE,67,2.0,11.0,64,0.00,,,0.00,Rainwise IP-100,2013-09-26 15:38:00,
2013-09-26 11:43:00,56.8,44.0,30.25,NE,45,9.0,10.0,63,0.00,,,0.00,Rainwise IP-100,2013-09-26 15:43:00,
2013-09-26 11:48:00,57.2,46.0,30.25,NE,45,2.0,10.0,66,0.00,,,0.00,Rainwise IP-100,2013-09-26 15:48:00,
2013-09-26 11:53:00,57.6,46.0,30.25,East,90,2.0,6.0,65,0.00,,,0.00,Rainwise IP-100,2013-09-26 15:53:00,
2013-09-26 11:58:00,57.9,45.0,30.24,ESE,112,1.0,8.0,61,0.00,,,0.00,Rainwise IP-100,2013-09-26 15:58:00,
2013-09-26 12:03:00,58.4,46.0,30.24,NNE,22,3.0,6.0,63,0.00,,,0.00,Rainwise IP-100,2013-09-26 16:03:00,
2013-09-26 12:08:00,58.2,45.0,30.25,ENE,67,2.0,7.0,61,0.00,,,0.00,Rainwise IP-100,2013-09-26 16:08:00,
2013-09-26 12:13:00,58.5,46.0,30.25,NE,45,1.0,6.0,62,0.00,,,0.00,Rainwise IP-100,2013-09-26 16:13:00,
2013-09-26 12:18:00,58.7,46.0,30.25,North,360,4.0,9.0,61,0.00,,,0.00,Rainwise IP-100,2013-09-26 16:18:00,
2013-09-26 12:23:00,58.7,46.0,30.25,NNW,337,2.0,9.0,61,0.00,,,0.00,Rainwise IP-100,2013-09-26 16:23:00,
2013-09-26 12:29:00,58.1,45.0,30.25,NE,45,2.0,9.0,62,0.00,,,0.00,Rainwise IP-100,2013-09-26 16:29:00,
2013-09-26 12:34:00,58.3,45.0,30.25,North,360,4.0,9.0,62,0.00,,,0.00,Rainwise IP-100,2013-09-26 16:34:00,
2013-09-26 12:39:00,58.9,46.0,30.25,ENE,67,3.0,11.0,61,0.00,,,0.00,Rainwise IP-100,2013-09-26 16:39:00,
2013-09-26 12:44:00,59.6,46.0,30.25,NNE,22,4.0,6.0,60,0.00,,,0.00,Rainwise IP-100,2013-09-26 16:44:00,
2013-09-26 12:50:00,59.0,45.0,30.25,NE,45,3.0,7.0,60,0.00,,,0.00,Rainwise IP-100,2013-09-26 16:50:00,
2013-09-26 12:55:00,59.8,47.0,30.25,NNE,22,4.0,8.0,62,0.00,,,0.00,Rainwise IP-100,2013-09-26 16:55:00,
2013-09-26 13:00:00,59.5,45.0,30.25,NW,315,5.0,9.0,58,0.00,,,0.00,Rainwise IP-100,2013-09-26 17:00:00,
2013-09-26 13:05:00,59.2,47.0,30.24,North,360,4.0,11.0,63,0.00,,,0.00,Rainwise IP-100,2013-09-26 17:05:00,
2013-09-26 13:10:00,59.8,46.0,30.25,North,360,1.0,10.0,61,0.00,,,0.00,Rainwise IP-100,2013-09-26 17:10:00,
2013-09-26 13:15:00,59.3,46.0,30.25,WNW,292,1.0,9.0,62,0.00,,,0.00,Rainwise IP-100,2013-09-26 17:15:00,
2013-09-26 13:20:00,60.0,47.0,30.24,SE,135,1.0,8.0,63,0.00,,,0.00,Rainwise IP-100,2013-09-26 17:20:00,
2013-09-26 13:26:00,60.4,47.0,30.24,NW,315,1.0,7.0,60,0.00,,,0.00,Rainwise IP-100,2013-09-26 17:26:00,
2013-09-26 13:31:00,60.6,47.0,30.24,North,360,3.0,7.0,60,0.00,,,0.00,Rainwise IP-100,2013-09-26 17:31:00,
2013-09-26 13:36:00,60.4,45.0,30.24,NE,45,3.0,9.0,57,0.00,,,0.00,Rainwise IP-100,2013-09-26 17:36:00,
2013-09-26 13:41:00,60.4,46.0,30.24,NE,45,2.0,6.0,59,0.00,,,0.00,Rainwise IP-100,2013-09-26 17:41:00,
2013-09-26 13:46:00,60.6,46.0,30.24,NE,45,7.0,8.0,59,0.00,,,0.00,Rainwise IP-100,2013-09-26 17:46:00,
2013-09-26 13:51:00,60.1,46.0,30.24,North,360,6.0,9.0,59,0.00,,,0.00,Rainwise IP-100,2013-09-26 17:51:00,
2013-09-26 13:56:00,59.4,46.0,30.25,ENE,67,9.0,11.0,60,0.00,,,0.00,Rainwise IP-100,2013-09-26 17:56:00,
2013-09-26 14:01:00,58.5,47.0,30.25,NE,45,3.0,14.0,63,0.00,,,0.00,Rainwise IP-100,2013-09-26 18:01:00,
2013-09-26 14:06:00,58.4,47.0,30.25,NE,45,10.0,10.0,65,0.00,,,0.00,Rainwise IP-100,2013-09-26 18:06:00,
2013-09-26 14:11:00,58.6,46.0,30.25,East,90,4.0,12.0,62,0.00,,,0.00,Rainwise IP-100,2013-09-26 18:11:00,
2013-09-26 14:16:00,58.5,47.0,30.25,SE,135,2.0,11.0,63,0.00,,,0.00,Rainwise IP-100,2013-09-26 18:16:00,
2013-09-26 14:22:00,59.0,46.0,30.25,East,90,3.0,7.0,62,0.00,,,0.00,Rainwise IP-100,2013-09-26 18:22:00,
2013-09-26 14:28:00,58.6,47.0,30.25,NW,315,2.0,9.0,64,0.00,,,0.00,Rainwise IP-100,2013-09-26 18:28:00,
2013-09-26 14:33:00,57.9,45.0,30.25,NE,45,9.0,10.0,61,0.00,,,0.00,Rainwise IP-100,2013-09-26 18:33:00,
2013-09-26 14:38:00,57.7,44.0,30.25,NNE,22,2.0,9.0,61,0.00,,,0.00,Rainwise IP-100,2013-09-26 18:38:00,
2013-09-26 14:45:00,57.7,46.0,30.25,NNW,337,3.0,9.0,65,0.00,,,0.00,Rainwise IP-100,2013-09-26 18:45:00,
2013-09-26 14:50:00,57.8,45.0,30.25,NE,45,3.0,8.0,63,0.00,,,0.00,Rainwise IP-100,2013-09-26 18:50:00,
2013-09-26 14:55:00,57.8,45.0,30.25,ESE,112,2.0,6.0,63,0.00,,,0.00,Rainwise IP-100,2013-09-26 18:55:00,
2013-09-26 15:00:00,58.5,47.0,30.25,NE,45,4.0,6.0,63,0.00,,,0.00,Rainwise IP-100,2013-09-26 19:00:00,
2013-09-26 15:06:00,57.6,45.0,30.25,East,90,3.0,9.0,63,0.00,,,0.00,Rainwise IP-100,2013-09-26 19:06:00,
2013-09-26 15:11:00,57.8,46.0,30.25,SE,135,1.0,10.0,65,0.00,,,0.00,Rainwise IP-100,2013-09-26 19:11:00,
2013-09-26 15:16:00,58.1,47.0,30.25,East,90,2.0,7.0,65,0.00,,,0.00,Rainwise IP-100,2013-09-26 19:16:00,
2013-09-26 15:21:00,57.7,46.0,30.25,North,360,2.0,9.0,64,0.00,,,0.00,Rainwise IP-100,2013-09-26 19:21:00,
2013-09-26 15:27:00,58.4,46.0,30.25,North,360,1.0,11.0,64,0.00,,,0.00,Rainwise IP-100,2013-09-26 19:27:00,
2013-09-26 15:32:00,58.3,47.0,30.25,North,360,1.0,10.0,66,0.00,,,0.00,Rainwise IP-100,2013-09-26 19:32:00,
2013-09-26 15:37:00,58.2,47.0,30.25,NW,315,1.0,11.0,65,0.00,,,0.00,Rainwise IP-100,2013-09-26 19:37:00,
2013-09-26 15:42:00,58.4,47.0,30.26,NE,45,6.0,9.0,65,0.00,,,0.00,Rainwise IP-100,2013-09-26 19:42:00,
2013-09-26 15:47:00,58.1,46.0,30.26,NE,45,5.0,12.0,64,0.00,,,0.00,Rainwise IP-100,2013-09-26 19:47:00,
2013-09-26 15:52:00,58.3,47.0,30.26,SE,135,2.0,9.0,65,0.00,,,0.00,Rainwise IP-100,2013-09-26 19:52:00,
2013-09-26 15:58:00,58.1,47.0,30.26,ENE,67,2.0,7.0,66,0.00,,,0.00,Rainwise IP-100,2013-09-26 19:58:00,
2013-09-26 16:03:00,57.8,45.0,30.26,East,90,2.0,8.0,63,0.00,,,0.00,Rainwise IP-100,2013-09-26 20:03:00,
2013-09-26 16:08:00,57.6,47.0,30.26,ENE,67,1.0,6.0,66,0.00,,,0.00,Rainwise IP-100,2013-09-26 20:08:00,
2013-09-26 16:13:00,58.0,46.0,30.26,SE,135,3.0,5.0,64,0.00,,,0.00,Rainwise IP-100,2013-09-26 20:13:00,
2013-09-26 16:18:00,58.3,47.0,30.27,North,360,6.0,6.0,65,0.00,,,0.00,Rainwise IP-100,2013-09-26 20:18:00,
2013-09-26 16:23:00,57.2,46.0,30.27,NE,45,1.0,8.0,65,0.00,,,0.00,Rainwise IP-100,2013-09-26 20:23:00,
2013-09-26 16:29:00,56.8,45.0,30.26,NE,45,2.0,7.0,65,0.00,,,0.00,Rainwise IP-100,2013-09-26 20:29:00,
2013-09-26 16:34:00,56.9,46.0,30.27,East,90,1.0,9.0,66,0.00,,,0.00,Rainwise IP-100,2013-09-26 20:34:00,
2013-09-26 16:39:00,56.9,45.0,30.27,NE,45,5.0,9.0,64,0.00,,,0.00,Rainwise IP-100,2013-09-26 20:39:00,
2013-09-26 16:44:00,56.9,45.0,30.27,North,360,3.0,7.0,64,0.00,,,0.00,Rainwise IP-100,2013-09-26 20:44:00,
2013-09-26 16:49:00,57.3,46.0,30.27,South,180,0.0,5.0,65,0.00,,,0.00,Rainwise IP-100,2013-09-26 20:49:00,
2013-09-26 16:54:00,57.5,46.0,30.27,NNW,337,2.0,7.0,64,0.00,,,0.00,Rainwise IP-100,2013-09-26 20:54:00,
2013-09-26 16:59:00,57.2,46.0,30.27,North,360,0.0,8.0,65,0.00,,,0.00,Rainwise IP-100,2013-09-26 20:59:00,
2013-09-26 17:04:00,57.1,46.0,30.27,NNE,22,2.0,7.0,66,0.00,,,0.00,Rainwise IP-100,2013-09-26 21:04:00,
2013-09-26 17:09:00,56.7,45.0,30.27,North,360,2.0,6.0,66,0.00,,,0.00,Rainwise IP-100,2013-09-26 21:09:00,
2013-09-26 17:14:00,56.5,46.0,30.27,North,360,5.0,6.0,67,0.00,,,0.00,Rainwise IP-100,2013-09-26 21:14:00,
2013-09-26 17:19:00,56.2,46.0,30.27,NNW,337,2.0,6.0,68,0.00,,,0.00,Rainwise IP-100,2013-09-26 21:19:00,
2013-09-26 17:24:00,55.7,47.0,30.27,NW,315,2.0,6.0,71,0.00,,,0.00,Rainwise IP-100,2013-09-26 21:24:00,
2013-09-26 17:31:00,54.9,46.0,30.27,North,360,2.0,9.0,71,0.00,,,0.00,Rainwise IP-100,2013-09-26 21:31:00,
2013-09-26 17:37:00,54.1,46.0,30.27,NE,45,2.0,8.0,74,0.00,,,0.00,Rainwise IP-100,2013-09-26 21:37:00,
2013-09-26 17:42:00,53.7,46.0,30.27,North,360,6.0,6.0,75,0.00,,,0.00,Rainwise IP-100,2013-09-26 21:42:00,
2013-09-26 17:47:00,53.1,46.0,30.27,North,360,2.0,8.0,77,0.00,,,0.00,Rainwise IP-100,2013-09-26 21:47:00,
2013-09-26 17:52:00,52.8,46.0,30.27,North,360,2.0,4.0,78,0.00,,,0.00,Rainwise IP-100,2013-09-26 21:52:00,
2013-09-26 17:57:00,52.4,46.0,30.27,NNW,337,2.0,4.0,79,0.00,,,0.00,Rainwise IP-100,2013-09-26 21:57:00,
2013-09-26 18:02:00,52.1,46.0,30.27,North,360,1.0,4.0,80,0.00,,,0.00,Rainwise IP-100,2013-09-26 22:02:00,
2013-09-26 18:07:00,51.9,46.0,30.27,NNE,22,0.0,4.0,80,0.00,,,0.00,Rainwise IP-100,2013-09-26 22:07:00,
2013-09-26 18:12:00,51.4,46.0,30.27,North,360,2.0,3.0,81,0.00,,,0.00,Rainwise IP-100,2013-09-26 22:12:00,
2013-09-26 18:17:00,50.9,46.0,30.27,North,360,1.0,2.0,82,0.00,,,0.00,Rainwise IP-100,2013-09-26 22:17:00,
2013-09-26 18:22:00,50.5,46.0,30.27,North,360,2.0,4.0,83,0.00,,,0.00,Rainwise IP-100,2013-09-26 22:22:00,
2013-09-26 18:27:00,50.4,46.0,30.27,NW,315,0.0,4.0,84,0.00,,,0.00,Rainwise IP-100,2013-09-26 22:27:00,
2013-09-26 18:33:00,50.1,46.0,30.26,North,360,3.0,4.0,85,0.00,,,0.00,Rainwise IP-100,2013-09-26 22:33:00,
2013-09-26 18:38:00,49.9,46.0,30.26,NW,315,0.0,4.0,85,0.00,,,0.00,Rainwise IP-100,2013-09-26 22:38:00,
2013-09-26 18:43:00,49.7,47.0,30.26,NW,315,1.0,2.0,88,0.00,,,0.00,Rainwise IP-100,2013-09-26 22:43:00,
2013-09-26 18:48:00,49.1,46.0,30.26,NW,315,1.0,2.0,88,0.00,,,0.00,Rainwise IP-100,2013-09-26 22:48:00,
2013-09-26 18:53:00,48.6,47.0,30.26,NNE,22,1.0,2.0,90,0.00,,,0.00,Rainwise IP-100,2013-09-26 22:53:00,
2013-09-26 18:58:00,48.2,46.0,30.26,North,360,0.0,2.0,91,0.00,,,0.00,Rainwise IP-100,2013-09-26 22:58:00,
2013-09-26 19:03:00,47.8,46.0,30.27,North,360,1.0,2.0,93,0.00,,,0.00,Rainwise IP-100,2013-09-26 23:03:00,
2013-09-26 19:09:00,46.9,45.0,30.26,North,360,0.0,2.0,93,0.00,,,0.00,Rainwise IP-100,2013-09-26 23:09:00,
2013-09-26 19:14:00,46.3,45.0,30.26,North,360,0.0,0.0,96,0.00,,,0.00,Rainwise IP-100,2013-09-26 23:14:00,
2013-09-26 19:19:00,45.6,45.0,30.26,North,360,2.0,2.0,97,0.00,,,0.00,Rainwise IP-100,2013-09-26 23:19:00,
2013-09-26 19:24:00,45.1,44.0,30.27,North,360,0.0,2.0,97,0.00,,,0.00,Rainwise IP-100,2013-09-26 23:24:00,
2013-09-26 19:31:00,44.7,44.0,30.27,North,360,0.0,2.0,96,0.00,,,0.00,Rainwise IP-100,2013-09-26 23:31:00,
2013-09-26 19:37:00,44.3,43.0,30.27,North,360,0.0,0.0,96,0.00,,,0.00,Rainwise IP-100,2013-09-26 23:37:00,
2013-09-26 19:42:00,43.9,43.0,30.26,North,360,1.0,2.0,96,0.00,,,0.00,Rainwise IP-100,2013-09-26 23:42:00,
2013-09-26 19:47:00,43.5,43.0,30.26,North,360,0.0,2.0,96,0.00,,,0.00,Rainwise IP-100,2013-09-26 23:47:00,
2013-09-26 19:53:00,43.4,42.0,30.27,North,360,0.0,1.0,96,0.00,,,0.00,Rainwise IP-100,2013-09-26 23:53:00,
2013-09-26 19:58:00,43.2,42.0,30.27,North,360,0.0,2.0,96,0.00,,,0.00,Rainwise IP-100,2013-09-26 23:58:00,
2013-09-26 20:03:00,42.9,42.0,30.27,North,360,1.0,2.0,96,0.00,,,0.00,Rainwise IP-100,2013-09-27 00:03:00,
2013-09-26 20:10:00,42.3,41.0,30.27,North,360,0.0,2.0,96,0.00,,,0.00,Rainwise IP-100,2013-09-27 00:10:00,
2013-09-26 20:15:00,42.1,41.0,30.27,North,360,0.0,0.0,96,0.00,,,0.00,Rainwise IP-100,2013-09-27 00:15:00,
2013-09-26 20:20:00,41.9,41.0,30.27,North,360,0.0,2.0,96,0.00,,,0.00,Rainwise IP-100,2013-09-27 00:20:00,
2013-09-26 20:26:00,42.0,41.0,30.27,North,360,0.0,2.0,96,0.00,,,0.00,Rainwise IP-100,2013-09-27 00:26:00,
2013-09-26 20:32:00,42.2,41.0,30.27,North,360,1.0,2.0,96,0.00,,,0.00,Rainwise IP-100,2013-09-27 00:32:00,
2013-09-26 20:38:00,42.6,42.0,30.27,North,360,0.0,0.0,96,0.00,,,0.00,Rainwise IP-100,2013-09-27 00:38:00,
2013-09-26 20:43:00,42.6,42.0,30.27,North,360,0.0,2.0,96,0.00,,,0.00,Rainwise IP-100,2013-09-27 00:43:00,
2013-09-26 20:48:00,42.7,42.0,30.27,North,360,0.0,0.0,96,0.00,,,0.00,Rainwise IP-100,2013-09-27 00:48:00,
2013-09-26 20:53:00,42.9,42.0,30.27,North,360,0.0,0.0,96,0.00,,,0.00,Rainwise IP-100,2013-09-27 00:53:00,
2013-09-26 20:58:00,43.1,42.0,30.28,North,360,0.0,0.0,96,0.00,,,0.00,Rainwise IP-100,2013-09-27 00:58:00,
2013-09-26 21:04:00,43.2,42.0,30.28,North,360,0.0,2.0,96,0.00,,,0.00,Rainwise IP-100,2013-09-27 01:04:00,
2013-09-26 21:09:00,43.4,42.0,30.28,North,360,0.0,1.0,96,0.00,,,0.00,Rainwise IP-100,2013-09-27 01:09:00,
2013-09-26 21:14:00,43.6,43.0,30.28,North,360,0.0,2.0,96,0.00,,,0.00,Rainwise IP-100,2013-09-27 01:14:00,
2013-09-26 21:19:00,43.8,43.0,30.28,North,360,0.0,1.0,96,0.00,,,0.00,Rainwise IP-100,2013-09-27 01:19:00,
2013-09-26 21:24:00,43.9,43.0,30.28,North,360,0.0,0.0,96,0.00,,,0.00,Rainwise IP-100,2013-09-27 01:24:00,
2013-09-26 21:29:00,44.2,43.0,30.28,North,360,1.0,2.0,96,0.00,,,0.00,Rainwise IP-100,2013-09-27 01:29:00,
2013-09-26 21:35:00,44.2,43.0,30.28,North,360,0.0,2.0,96,0.00,,,0.00,Rainwise IP-100,2013-09-27 01:35:00,
2013-09-26 21:40:00,44.3,43.0,30.29,North,360,0.0,0.0,96,0.00,,,0.00,Rainwise IP-100,2013-09-27 01:40:00,
2013-09-26 21:45:00,44.5,44.0,30.29,North,360,0.0,0.0,96,0.00,,,0.00,Rainwise IP-100,2013-09-27 01:45:00,
2013-09-26 21:50:00,44.7,44.0,30.29,North,360,1.0,2.0,96,0.00,,,0.00,Rainwise IP-100,2013-09-27 01:50:00,
2013-09-26 21:55:00,44.8,44.0,30.29,North,360,0.0,1.0,96,0.00,,,0.00,Rainwise IP-100,2013-09-27 01:55:00,
2013-09-26 22:00:00,44.9,44.0,30.29,North,360,0.0,2.0,96,0.00,,,0.00,Rainwise IP-100,2013-09-27 02:00:00,
2013-09-26 22:05:00,44.9,44.0,30.29,North,360,0.0,0.0,96,0.00,,,0.00,Rainwise IP-100,2013-09-27 02:05:00,
2013-09-26 22:10:00,45.2,44.0,30.29,North,360,1.0,0.0,97,0.00,,,0.00,Rainwise IP-100,2013-09-27 02:10:00,
2013-09-26 22:15:00,45.4,44.0,30.29,NE,45,1.0,2.0,97,0.00,,,0.00,Rainwise IP-100,2013-09-27 02:15:00,
2013-09-26 22:20:00,45.5,45.0,30.29,East,90,0.0,2.0,97,0.00,,,0.00,Rainwise IP-100,2013-09-27 02:20:00,
2013-09-26 22:26:00,45.6,45.0,30.29,East,90,0.0,0.0,97,0.00,,,0.00,Rainwise IP-100,2013-09-27 02:26:00,
2013-09-26 22:31:00,45.8,45.0,30.29,South,180,1.0,2.0,97,0.00,,,0.00,Rainwise IP-100,2013-09-27 02:31:00,
2013-09-26 22:37:00,46.3,45.0,30.29,South,180,0.0,2.0,97,0.00,,,0.00,Rainwise IP-100,2013-09-27 02:37:00,
2013-09-26 22:42:00,46.4,45.0,30.29,South,180,0.0,2.0,97,0.00,,,0.00,Rainwise IP-100,2013-09-27 02:42:00,
2013-09-26 22:47:00,46.6,46.0,30.29,South,180,0.0,0.0,97,0.00,,,0.00,Rainwise IP-100,2013-09-27 02:47:00,
2013-09-26 22:52:00,46.7,46.0,30.29,SE,135,0.0,2.0,97,0.00,,,0.00,Rainwise IP-100,2013-09-27 02:52:00,
2013-09-26 22:57:00,46.8,46.0,30.29,SE,135,0.0,1.0,97,0.00,,,0.00,Rainwise IP-100,2013-09-27 02:57:00,
2013-09-26 23:02:00,46.9,46.0,30.29,North,360,0.0,2.0,97,0.00,,,0.00,Rainwise IP-100,2013-09-27 03:02:00,
2013-09-26 23:07:00,47.0,46.0,30.29,North,360,0.0,2.0,97,0.00,,,0.00,Rainwise IP-100,2013-09-27 03:07:00,
2013-09-26 23:12:00,47.1,46.0,30.29,North,360,0.0,1.0,97,0.00,,,0.00,Rainwise IP-100,2013-09-27 03:12:00,
2013-09-26 23:17:00,47.1,46.0,30.29,North,360,0.0,2.0,97,0.00,,,0.00,Rainwise IP-100,2013-09-27 03:17:00,
2013-09-26 23:22:00,47.1,46.0,30.29,North,360,0.0,2.0,97,0.00,,,0.00,Rainwise IP-100,2013-09-27 03:22:00,
2013-09-26 23:27:00,47.3,46.0,30.29,WNW,292,1.0,2.0,97,0.00,,,0.00,Rainwise IP-100,2013-09-27 03:27:00,
2013-09-26 23:32:00,47.3,46.0,30.29,SE,135,0.0,2.0,97,0.00,,,0.00,Rainwise IP-100,2013-09-27 03:32:00,
2013-09-26 23:39:00,47.4,47.0,30.29,SE,135,0.0,0.0,97,0.00,,,0.00,Rainwise IP-100,2013-09-27 03:39:00,
2013-09-26 23:44:00,47.3,46.0,30.29,SE,135,0.0,0.0,97,0.00,,,0.00,Rainwise IP-100,2013-09-27 03:44:00,
2013-09-26 23:49:00,47.2,46.0,30.29,SE,135,0.0,2.0,97,0.00,,,0.00,Rainwise IP-100,2013-09-27 03:49:00,
2013-09-26 23:54:00,46.9,46.0,30.29,SE,135,0.0,0.0,97,0.00,,,0.00,Rainwise IP-100,2013-09-27 03:54:00,
2013-09-26 23:59:00,46.7,46.0,30.29,SE,135,1.0,2.0,97,0.00,,,0.00,Rainwise IP-100,2013-09-27 03:59:00,